Time,TemperatureF,DewpointF,PressureIn,WindDirection,WindDirectionDegrees,WindSpeedMPH,WindSpeedGustMPH,Humidity,HourlyPrecipIn,Conditions,Clouds,dailyrainin,SoftwareType,DateUTC
2013-09-14 00:00:00,54.1,48.7,29.97,South,177,0.0,1.0,82,0.00,,,0.00,WeatherDisplay:10.37,2013-09-14 04:00:00,
2013-09-14 00:01:00,54.0,48.6,29.97,South,177,0.0,0.0,82,0.00,,,0.00,WeatherDisplay:10.37,2013-09-14 04:01:00,
2013-09-14 00:02:00,54.0,48.6,29.97,South,177,1.2,0.0,82,0.00,,,0.00,WeatherDisplay:10.37,2013-09-14 04:02:00,
2013-09-14 00:07:00,53.8,48.4,29.97,South,177,0.0,0.0,82,0.00,,,0.00,WeatherDisplay:10.37,2013-09-14 04:07:00,
2013-09-14 00:12:00,53.5,48.5,29.97,South,177,0.0,0.0,83,0.00,,,0.00,WeatherDisplay:10.37,2013-09-14 04:12:00,
2013-09-14 00:17:00,53.1,48.4,29.97,South,177,1.2,1.2,84,0.00,,,0.00,WeatherDisplay:10.37,2013-09-14 04:17:00,
2013-09-14 00:22:00,52.6,48.2,29.98,South,177,0.0,0.0,85,0.00,,,0.00,WeatherDisplay:10.37,2013-09-14 04:22:00,
2013-09-14 00:27:00,52.1,48.3,29.98,South,177,0.0,0.0,87,0.00,,,0.00,WeatherDisplay:10.37,2013-09-14 04:27:00,
2013-09-14 00:32:00,51.8,48.4,29.98,South,177,1.2,0.0,88,0.00,,,0.00,WeatherDisplay:10.37,2013-09-14 04:32:00,
2013-09-14 00:37:00,51.5,48.4,29.98,South,177,0.0,0.0,89,0.00,,,0.00,WeatherDisplay:10.37,2013-09-14 04:37:00,
2013-09-14 00:42:00,51.2,48.4,29.98,South,177,0.0,0.0,90,0.00,,,0.00,WeatherDisplay:10.37,2013-09-14 04:42:00,
2013-09-14 00:47:00,50.8,48.0,29.98,South,177,1.2,0.0,90,0.00,,,0.00,WeatherDisplay:10.37,2013-09-14 04:47:00,
2013-09-14 00:52:00,50.6,48.1,29.98,South,176,0.0,0.0,91,0.00,,,0.00,WeatherDisplay:10.37,2013-09-14 04:52:00,
2013-09-14 00:57:00,50.3,47.8,29.98,South,177,0.0,0.0,91,0.00,,,0.00,WeatherDisplay:10.37,2013-09-14 04:57:00,
2013-09-14 01:02:00,50.1,47.6,29.98,South,177,0.0,0.0,91,0.00,,,0.00,WeatherDisplay:10.37,2013-09-14 05:02:00,
2013-09-14 01:07:00,49.9,47.7,29.98,South,177,0.0,0.0,92,0.00,,,0.00,WeatherDisplay:10.37,2013-09-14 05:07:00,
2013-09-14 01:12:00,49.6,47.4,29.98,South,177,1.2,0.0,92,0.00,,,0.00,WeatherDisplay:10.37,2013-09-14 05:12:00,
2013-09-14 01:17:00,49.4,47.5,29.98,South,177,0.0,0.0,93,0.00,,,0.00,WeatherDisplay:10.37,2013-09-14 05:17:00,
2013-09-14 01:22:00,49.4,47.5,29.98,South,177,0.0,0.0,93,0.00,,,0.00,WeatherDisplay:10.37,2013-09-14 05:22:00,
2013-09-14 01:27:00,49.3,47.4,29.98,South,177,0.0,0.0,93,0.00,,,0.00,WeatherDisplay:10.37,2013-09-14 05:27:00,
2013-09-14 01:32:00,49.2,47.5,29.99,South,177,0.0,0.0,94,0.00,,,0.00,WeatherDisplay:10.37,2013-09-14 05:32:00,
2013-09-14 01:37:00,49.1,47.4,29.99,South,177,0.0,0.0,94,0.00,,,0.00,WeatherDisplay:10.37,2013-09-14 05:37:00,
2013-09-14 01:42:00,49.1,47.4,29.99,South,177,0.0,0.0,94,0.00,,,0.00,WeatherDisplay:10.37,2013-09-14 05:42:00,
2013-09-14 01:47:00,49.0,47.3,29.99,South,177,0.0,0.0,94,0.00,,,0.00,WeatherDisplay:10.37,2013-09-14 05:47:00,
2013-09-14 01:52:00,48.8,47.2,29.99,South,177,0.0,0.0,94,0.00,,,0.00,WeatherDisplay:10.37,2013-09-14 05:52:00,
2013-09-14 01:57:00,48.7,47.3,29.99,South,177,0.0,0.0,95,0.00,,,0.00,WeatherDisplay:10.37,2013-09-14 05:57:00,
2013-09-14 02:02:00,48.7,47.3,29.98,South,177,0.0,0.0,95,0.00,,,0.00,WeatherDisplay:10.37,2013-09-14 06:02:00,
2013-09-14 02:07:00,48.5,47.1,29.98,South,177,0.0,0.0,95,0.00,,,0.00,WeatherDisplay:10.37,2013-09-14 06:07:00,
2013-09-14 02:12:00,48.2,46.8,29.98,South,176,0.0,0.0,95,0.00,,,0.00,WeatherDisplay:10.37,2013-09-14 06:12:00,
2013-09-14 02:17:00,48.1,46.7,29.98,South,177,0.0,0.0,95,0.00,,,0.00,WeatherDisplay:10.37,2013-09-14 06:17:00,
2013-09-14 02:22:00,47.9,46.5,29.99,South,177,0.0,0.0,95,0.00,,,0.00,WeatherDisplay:10.37,2013-09-14 06:22:00,
2013-09-14 02:27:00,47.5,46.1,29.98,South,177,0.0,0.0,95,0.00,,,0.00,WeatherDisplay:10.37,2013-09-14 06:27:00,
2013-09-14 02:32:00,47.4,46.0,29.99,South,177,0.0,0.0,95,0.00,,,0.00,WeatherDisplay:10.37,2013-09-14 06:32:00,
2013-09-14 02:37:00,47.3,46.2,29.99,South,177,0.0,0.0,96,0.00,,,0.00,WeatherDisplay:10.37,2013-09-14 06:37:00,
2013-09-14 02:42:00,47.2,46.1,29.99,South,177,0.0,0.0,96,0.00,,,0.00,WeatherDisplay:10.37,2013-09-14 06:42:00,
2013-09-14 02:47:00,47.2,46.1,29.98,South,177,0.0,0.0,96,0.00,,,0.00,WeatherDisplay:10.37,2013-09-14 06:47:00,
2013-09-14 02:52:00,47.2,46.1,29.98,South,177,0.0,0.0,96,0.00,,,0.00,WeatherDisplay:10.37,2013-09-14 06:52:00,
2013-09-14 02:57:00,47.1,46.0,29.98,South,177,0.0,0.0,96,0.00,,,0.00,WeatherDisplay:10.37,2013-09-14 06:57:00,
2013-09-14 03:02:00,47.1,46.0,29.98,South,177,0.0,0.0,96,0.00,,,0.00,WeatherDisplay:10.37,2013-09-14 07:02:00,
2013-09-14 03:07:00,46.9,45.8,29.98,South,177,0.0,0.0,96,0.00,,,0.00,WeatherDisplay:10.37,2013-09-14 07:07:00,
2013-09-14 03:12:00,46.8,45.7,29.99,South,177,0.0,0.0,96,0.00,,,0.00,WeatherDisplay:10.37,2013-09-14 07:12:00,
2013-09-14 03:17:00,46.9,46.1,29.99,South,177,0.0,0.0,97,0.00,,,0.00,WeatherDisplay:10.37,2013-09-14 07:17:00,
2013-09-14 03:22:00,46.8,45.7,29.98,South,177,0.0,0.0,96,0.00,,,0.00,WeatherDisplay:10.37,2013-09-14 07:22:00,
2013-09-14 03:27:00,46.5,45.4,29.98,South,177,0.0,0.0,96,0.00,,,0.00,WeatherDisplay:10.37,2013-09-14 07:27:00,
2013-09-14 03:32:00,46.4,45.3,29.99,South,177,0.0,0.0,96,0.00,,,0.00,WeatherDisplay:10.37,2013-09-14 07:32:00,
2013-09-14 03:37:00,46.3,45.2,29.98,South,177,0.0,0.0,96,0.00,,,0.00,WeatherDisplay:10.37,2013-09-14 07:37:00,
2013-09-14 03:42:00,46.1,45.0,29.98,South,176,0.0,0.0,96,0.00,,,0.00,WeatherDisplay:10.37,2013-09-14 07:42:00,
2013-09-14 03:47:00,45.9,44.8,29.98,South,177,0.0,0.0,96,0.00,,,0.00,WeatherDisplay:10.37,2013-09-14 07:47:00,
2013-09-14 03:52:00,45.7,44.9,29.98,South,177,0.0,0.0,97,0.00,,,0.00,WeatherDisplay:10.37,2013-09-14 07:52:00,
2013-09-14 03:57:00,45.6,44.8,29.98,South,177,0.0,0.0,97,0.00,,,0.00,WeatherDisplay:10.37,2013-09-14 07:57:00,
2013-09-14 04:02:00,45.2,44.1,29.98,South,177,0.0,0.0,96,0.00,,,0.00,WeatherDisplay:10.37,2013-09-14 08:02:00,
2013-09-14 04:07:00,45.2,44.4,29.98,South,177,0.0,0.0,97,0.00,,,0.00,WeatherDisplay:10.37,2013-09-14 08:07:00,
2013-09-14 04:12:00,44.9,44.1,29.98,South,177,0.0,0.0,97,0.00,,,0.00,WeatherDisplay:10.37,2013-09-14 08:12:00,
2013-09-14 04:17:00,44.9,44.1,29.98,South,177,0.0,0.0,97,0.00,,,0.00,WeatherDisplay:10.37,2013-09-14 08:17:00,
2013-09-14 04:23:00,45.1,44.3,29.98,South,177,0.0,0.0,97,0.00,,,0.00,WeatherDisplay:10.37,2013-09-14 08:23:00,
2013-09-14 04:28:00,45.2,44.4,29.98,South,177,0.0,0.0,97,0.00,,,0.00,WeatherDisplay:10.37,2013-09-14 08:28:00,
2013-09-14 04:33:00,45.3,44.5,29.98,South,177,0.0,0.0,97,0.00,,,0.00,WeatherDisplay:10.37,2013-09-14 08:33:00,
2013-09-14 04:38:00,45.5,45.0,29.99,South,177,1.2,0.0,98,0.00,,,0.00,WeatherDisplay:10.37,2013-09-14 08:38:00,
2013-09-14 04:43:00,45.5,44.7,29.98,South,177,0.0,0.0,97,0.00,,,0.00,WeatherDisplay:10.37,2013-09-14 08:43:00,
2013-09-14 04:48:00,45.4,44.6,29.98,South,177,0.0,0.0,97,0.00,,,0.00,WeatherDisplay:10.37,2013-09-14 08:48:00,
2013-09-14 04:53:00,45.4,44.6,29.99,South,177,1.2,0.0,97,0.00,,,0.00,WeatherDisplay:10.37,2013-09-14 08:53:00,
2013-09-14 04:58:00,45.5,44.7,29.99,South,177,0.0,0.0,97,0.00,,,0.00,WeatherDisplay:10.37,2013-09-14 08:58:00,
2013-09-14 05:03:00,45.5,44.7,29.99,South,177,0.0,0.0,97,0.00,,,0.00,WeatherDisplay:10.37,2013-09-14 09:03:00,
2013-09-14 05:08:00,45.3,44.5,29.99,South,177,0.0,0.0,97,0.00,,,0.00,WeatherDisplay:10.37,2013-09-14 09:08:00,
2013-09-14 05:13:00,45.3,44.5,29.99,South,174,1.2,1.2,97,0.00,,,0.00,WeatherDisplay:10.37,2013-09-14 09:13:00,
2013-09-14 05:18:00,45.1,44.3,29.99,South,175,0.0,0.0,97,0.00,,,0.00,WeatherDisplay:10.37,2013-09-14 09:18:00,
2013-09-14 05:23:00,44.9,44.1,30.00,South,177,0.0,0.0,97,0.00,,,0.00,WeatherDisplay:10.37,2013-09-14 09:23:00,
2013-09-14 05:28:00,44.7,43.9,30.00,South,177,0.0,0.0,97,0.00,,,0.00,WeatherDisplay:10.37,2013-09-14 09:28:00,
2013-09-14 05:33:00,44.5,43.7,29.99,South,177,0.0,0.0,97,0.00,,,0.00,WeatherDisplay:10.37,2013-09-14 09:33:00,
2013-09-14 05:38:00,44.5,43.7,29.99,South,177,0.0,0.0,97,0.00,,,0.00,WeatherDisplay:10.37,2013-09-14 09:38:00,
2013-09-14 05:43:00,44.4,43.6,29.99,South,177,0.0,0.0,97,0.00,,,0.00,WeatherDisplay:10.37,2013-09-14 09:43:00,
2013-09-14 05:48:00,44.4,43.6,29.99,South,177,0.0,0.0,97,0.00,,,0.00,WeatherDisplay:10.37,2013-09-14 09:48:00,
2013-09-14 05:53:00,44.5,44.0,29.99,South,177,0.0,0.0,98,0.00,,,0.00,WeatherDisplay:10.37,2013-09-14 09:53:00,
2013-09-14 05:58:00,44.5,44.0,30.00,South,177,0.0,0.0,98,0.00,,,0.00,WeatherDisplay:10.37,2013-09-14 09:58:00,
2013-09-14 06:03:00,44.5,44.0,30.00,South,177,0.0,0.0,98,0.00,,,0.00,WeatherDisplay:10.37,2013-09-14 10:03:00,
2013-09-14 06:08:00,44.7,44.2,30.00,South,177,1.2,1.2,98,0.00,,,0.00,WeatherDisplay:10.37,2013-09-14 10:08:00,
2013-09-14 06:13:00,44.6,44.1,30.00,South,177,0.0,0.0,98,0.00,,,0.00,WeatherDisplay:10.37,2013-09-14 10:13:00,
2013-09-14 06:18:00,44.4,43.6,30.00,South,177,0.0,0.0,97,0.00,,,0.00,WeatherDisplay:10.37,2013-09-14 10:18:00,
2013-09-14 06:23:00,44.2,43.4,30.00,South,177,0.0,0.0,97,0.00,,,0.00,WeatherDisplay:10.37,2013-09-14 10:23:00,
2013-09-14 06:28:00,43.9,43.1,30.01,South,177,0.0,0.0,97,0.00,,,0.00,WeatherDisplay:10.37,2013-09-14 10:28:00,
2013-09-14 06:33:00,43.7,42.9,30.01,South,177,0.0,0.0,97,0.00,,,0.00,WeatherDisplay:10.37,2013-09-14 10:33:00,
2013-09-14 06:38:00,43.5,42.7,30.01,South,177,0.0,0.0,97,0.00,,,0.00,WeatherDisplay:10.37,2013-09-14 10:38:00,
2013-09-14 06:43:00,43.5,43.0,30.02,South,177,0.0,0.0,98,0.00,,,0.00,WeatherDisplay:10.37,2013-09-14 10:43:00,
2013-09-14 06:48:00,43.5,43.0,30.02,South,177,0.0,0.0,98,0.00,,,0.00,WeatherDisplay:10.37,2013-09-14 10:48:00,
2013-09-14 06:53:00,43.4,42.9,30.02,South,177,0.0,0.0,98,0.00,,,0.00,WeatherDisplay:10.37,2013-09-14 10:53:00,
2013-09-14 06:58:00,43.5,43.0,30.02,South,177,0.0,0.0,98,0.00,,,0.00,WeatherDisplay:10.37,2013-09-14 10:58:00,
2013-09-14 07:03:00,43.5,43.0,30.03,South,177,0.0,0.0,98,0.00,CLR,,0.00,WeatherDisplay:10.37,2013-09-14 11:03:00,
2013-09-14 07:08:00,43.5,43.0,30.03,South,177,0.0,0.0,98,0.00,CLR,,0.00,WeatherDisplay:10.37,2013-09-14 11:08:00,
2013-09-14 07:13:00,43.5,43.0,30.03,South,177,0.0,0.0,98,0.00,CLR,,0.00,WeatherDisplay:10.37,2013-09-14 11:13:00,
2013-09-14 07:18:00,43.5,43.0,30.03,South,177,0.0,0.0,98,0.00,CLR,,0.00,WeatherDisplay:10.37,2013-09-14 11:18:00,
2013-09-14 07:23:00,43.6,43.1,30.04,South,177,0.0,0.0,98,0.00,CLR,,0.00,WeatherDisplay:10.37,2013-09-14 11:23:00,
2013-09-14 07:28:00,43.6,43.1,30.04,South,177,0.0,0.0,98,0.00,CLR,,0.00,WeatherDisplay:10.37,2013-09-14 11:28:00,
2013-09-14 07:33:00,43.7,43.2,30.04,South,177,0.0,0.0,98,0.00,CLR,,0.00,WeatherDisplay:10.37,2013-09-14 11:33:00,
2013-09-14 07:38:00,43.7,43.2,30.04,South,177,0.0,0.0,98,0.00,CLR,,0.00,WeatherDisplay:10.37,2013-09-14 11:38:00,
2013-09-14 07:43:00,43.8,43.3,30.04,South,177,0.0,0.0,98,0.00,CLR,,0.00,WeatherDisplay:10.37,2013-09-14 11:43:00,
2013-09-14 07:48:00,44.1,43.6,30.05,South,177,0.0,0.0,98,0.00,CLR,,0.00,WeatherDisplay:10.37,2013-09-14 11:48:00,
2013-09-14 07:53:00,44.3,43.8,30.05,South,177,0.0,0.1,98,0.00,CLR,,0.00,WeatherDisplay:10.37,2013-09-14 11:53:00,
2013-09-14 07:58:00,45.1,44.8,30.05,South,177,0.0,0.0,99,0.00,CLR,,0.00,WeatherDisplay:10.37,2013-09-14 11:58:00,
2013-09-14 08:03:00,46.3,46.0,30.06,South,177,1.2,1.2,99,0.00,CLR,,0.00,WeatherDisplay:10.37,2013-09-14 12:03:00,
2013-09-14 08:08:00,47.1,46.8,30.06,South,176,1.2,1.2,99,0.00,CLR,,0.00,WeatherDisplay:10.37,2013-09-14 12:08:00,
2013-09-14 08:13:00,47.6,47.3,30.06,South,177,0.0,0.0,99,0.00,CLR,,0.00,WeatherDisplay:10.37,2013-09-14 12:13:00,
2013-09-14 08:18:00,48.0,47.7,30.06,SSE,161,1.2,1.2,99,0.00,CLR,,0.00,WeatherDisplay:10.37,2013-09-14 12:18:00,
2013-09-14 08:23:00,48.5,48.0,30.06,North,5,1.2,1.2,98,0.00,CLR,,0.00,WeatherDisplay:10.37,2013-09-14 12:23:00,
2013-09-14 08:28:00,49.1,48.3,30.06,NE,38,1.2,1.2,97,0.00,CLR,,0.00,WeatherDisplay:10.37,2013-09-14 12:28:00,
2013-09-14 08:33:00,49.8,48.7,30.06,East,99,2.3,2.3,96,0.00,CLR,,0.00,WeatherDisplay:10.37,2013-09-14 12:33:00,
2013-09-14 08:38:00,50.7,49.3,30.06,East,96,2.3,2.3,95,0.00,CLR,,0.00,WeatherDisplay:10.37,2013-09-14 12:38:00,
2013-09-14 08:43:00,51.4,49.4,30.07,SSE,167,2.3,2.3,93,0.00,CLR,,0.00,WeatherDisplay:10.37,2013-09-14 12:43:00,
2013-09-14 08:48:00,52.3,50.3,30.07,ESE,105,2.0,2.0,93,0.00,CLR,,0.00,WeatherDisplay:10.37,2013-09-14 12:48:00,
2013-09-14 08:53:00,53.0,50.1,30.07,SE,134,3.5,3.5,90,0.00,CLR,,0.00,WeatherDisplay:10.37,2013-09-14 12:53:00,
2013-09-14 08:58:00,53.5,50.0,30.07,ESE,103,4.6,4.6,88,0.00,CLR,,0.00,WeatherDisplay:10.37,2013-09-14 12:58:00,
2013-09-14 09:03:00,53.7,49.6,30.07,East,95,4.6,4.6,86,0.00,CLR,,0.00,WeatherDisplay:10.37,2013-09-14 13:03:00,
2013-09-14 09:08:00,54.1,50.3,30.07,East,87,3.5,3.5,87,0.00,CLR,,0.00,WeatherDisplay:10.37,2013-09-14 13:08:00,
2013-09-14 09:13:00,54.7,50.3,30.07,ESE,122,3.5,3.5,85,0.00,CLR,,0.00,WeatherDisplay:10.37,2013-09-14 13:13:00,
2013-09-14 09:18:00,55.1,50.4,30.08,SE,134,3.5,3.5,84,0.00,CLR,,0.00,WeatherDisplay:10.37,2013-09-14 13:18:00,
2013-09-14 09:23:00,55.6,50.5,30.08,ESE,102,4.6,4.6,83,0.00,CLR,,0.00,WeatherDisplay:10.37,2013-09-14 13:23:00,
2013-09-14 09:28:00,55.8,50.4,30.08,ESE,118,4.6,4.6,82,0.00,CLR,,0.00,WeatherDisplay:10.37,2013-09-14 13:28:00,
2013-09-14 09:33:00,56.1,50.3,30.08,SE,139,4.6,4.6,81,0.00,CLR,,0.00,WeatherDisplay:10.37,2013-09-14 13:33:00,
2013-09-14 09:38:00,56.4,50.3,30.08,SE,140,6.0,6.0,80,0.00,CLR,,0.00,WeatherDisplay:10.37,2013-09-14 13:38:00,
2013-09-14 09:43:00,56.3,50.2,30.07,SE,146,4.6,4.6,80,0.00,CLR,,0.00,WeatherDisplay:10.37,2013-09-14 13:43:00,
2013-09-14 09:48:00,56.6,49.5,30.08,SE,133,4.6,4.6,77,0.00,CLR,,0.00,WeatherDisplay:10.37,2013-09-14 13:48:00,
2013-09-14 09:53:00,56.8,49.3,30.08,ESE,106,5.8,5.8,76,0.00,CLR,,0.00,WeatherDisplay:10.37,2013-09-14 13:53:00,
2013-09-14 09:58:00,57.1,50.0,30.08,SW,214,4.0,4.0,77,0.00,CLR,,0.00,WeatherDisplay:10.37,2013-09-14 13:58:00,
2013-09-14 10:03:00,57.4,49.9,30.08,NE,50,5.8,5.8,76,0.00,CLR,,0.00,WeatherDisplay:10.37,2013-09-14 14:03:00,
2013-09-14 10:08:00,57.5,49.3,30.08,ESE,108,6.9,6.9,74,0.00,CLR,,0.00,WeatherDisplay:10.37,2013-09-14 14:08:00,
2013-09-14 10:13:00,58.0,50.1,30.09,East,85,3.5,3.5,75,0.00,CLR,,0.00,WeatherDisplay:10.37,2013-09-14 14:13:00,
2013-09-14 10:18:00,58.0,49.4,30.09,SSE,161,4.6,4.6,73,0.00,CLR,,0.00,WeatherDisplay:10.37,2013-09-14 14:18:00,
2013-09-14 10:24:00,58.4,50.1,30.09,SE,127,5.0,5.0,74,0.00,CLR,,0.00,WeatherDisplay:10.37,2013-09-14 14:24:00,
2013-09-14 10:29:00,58.8,50.5,30.09,SSE,164,4.6,4.6,74,0.00,CLR,,0.00,WeatherDisplay:10.37,2013-09-14 14:29:00,
2013-09-14 10:34:00,59.0,51.1,30.09,ESE,118,3.5,3.5,75,0.00,CLR,,0.00,WeatherDisplay:10.37,2013-09-14 14:34:00,
2013-09-14 10:39:00,59.3,50.6,30.09,NNE,32,6.9,6.9,73,0.00,CLR,,0.00,WeatherDisplay:10.37,2013-09-14 14:39:00,
2013-09-14 10:44:00,59.4,50.7,30.09,ESE,115,2.3,2.3,73,0.00,CLR,,0.00,WeatherDisplay:10.37,2013-09-14 14:44:00,
2013-09-14 10:49:00,59.6,50.9,30.09,NNE,30,6.0,6.0,73,0.00,CLR,,0.00,WeatherDisplay:10.37,2013-09-14 14:49:00,
2013-09-14 10:54:00,59.9,50.1,30.09,SE,132,4.6,4.6,70,0.00,CLR,,0.00,WeatherDisplay:10.37,2013-09-14 14:54:00,
2013-09-14 10:59:00,60.1,49.9,30.09,SE,130,9.2,9.2,69,0.00,CLR,,0.00,WeatherDisplay:10.37,2013-09-14 14:59:00,
2013-09-14 11:04:00,60.6,50.4,30.09,East,89,3.5,3.5,69,0.00,CLR,,0.00,WeatherDisplay:10.37,2013-09-14 15:04:00,
2013-09-14 11:09:00,60.8,50.2,30.09,North,9,5.8,5.8,68,0.00,CLR,,0.00,WeatherDisplay:10.37,2013-09-14 15:09:00,
2013-09-14 11:14:00,61.2,50.6,30.09,NNE,26,3.5,3.5,68,0.00,CLR,,0.00,WeatherDisplay:10.37,2013-09-14 15:14:00,
2013-09-14 11:19:00,61.5,50.4,30.09,East,94,3.5,3.5,67,0.00,CLR,,0.00,WeatherDisplay:10.37,2013-09-14 15:19:00,
2013-09-14 11:24:00,62.1,51.4,30.09,SE,132,8.1,8.1,68,0.00,CLR,,0.00,WeatherDisplay:10.37,2013-09-14 15:24:00,
2013-09-14 11:29:00,62.2,50.3,30.09,ESE,118,3.5,3.5,65,0.00,CLR,,0.00,WeatherDisplay:10.37,2013-09-14 15:29:00,
2013-09-14 11:34:00,62.5,50.6,30.09,North,6,3.5,3.5,65,0.00,CLR,,0.00,WeatherDisplay:10.37,2013-09-14 15:34:00,
2013-09-14 11:39:00,62.8,49.1,30.09,East,91,3.5,3.5,61,0.00,CLR,,0.00,WeatherDisplay:10.37,2013-09-14 15:39:00,
2013-09-14 11:44:00,63.0,49.8,30.08,SSE,147,4.6,4.6,62,0.00,CLR,,0.00,WeatherDisplay:10.37,2013-09-14 15:44:00,
2013-09-14 11:49:00,63.5,49.8,30.08,East,89,3.5,3.5,61,0.00,CLR,,0.00,WeatherDisplay:10.37,2013-09-14 15:49:00,
2013-09-14 11:54:00,63.4,48.8,30.08,East,99,4.6,4.6,59,0.00,CLR,,0.00,WeatherDisplay:10.37,2013-09-14 15:54:00,
2013-09-14 11:59:00,63.4,50.1,30.08,NE,51,3.5,3.5,62,0.00,CLR,,0.00,WeatherDisplay:10.37,2013-09-14 15:59:00,
2013-09-14 12:04:00,63.3,48.3,30.08,North,3,3.5,3.5,58,0.00,CLR,,0.00,WeatherDisplay:10.37,2013-09-14 16:04:00,
2013-09-14 12:09:00,63.9,49.7,30.08,WNW,302,3.5,3.5,60,0.00,CLR,,0.00,WeatherDisplay:10.37,2013-09-14 16:09:00,
2013-09-14 12:14:00,64.2,48.6,30.08,ESE,115,3.5,3.5,57,0.00,CLR,,0.00,WeatherDisplay:10.37,2013-09-14 16:14:00,
2013-09-14 12:19:00,64.3,49.7,30.08,East,101,4.6,4.6,59,0.00,CLR,,0.00,WeatherDisplay:10.37,2013-09-14 16:19:00,
2013-09-14 12:24:00,64.7,51.4,30.08,ENE,59,3.5,3.5,62,0.00,CLR,,0.00,WeatherDisplay:10.37,2013-09-14 16:24:00,
2013-09-14 12:29:00,65.2,50.0,30.08,South,181,3.5,3.5,58,0.00,CLR,,0.00,WeatherDisplay:10.37,2013-09-14 16:29:00,
2013-09-14 12:34:00,66.2,51.4,30.08,SSE,162,4.0,4.0,59,0.00,CLR,,0.00,WeatherDisplay:10.37,2013-09-14 16:34:00,
2013-09-14 12:39:00,65.4,48.3,30.07,East,98,6.0,6.0,54,0.00,CLR,,0.00,WeatherDisplay:10.37,2013-09-14 16:39:00,
2013-09-14 12:44:00,65.3,49.2,30.08,SE,145,3.0,3.0,56,0.00,CLR,,0.00,WeatherDisplay:10.37,2013-09-14 16:44:00,
2013-09-14 12:49:00,65.9,49.8,30.08,ESE,116,3.5,3.5,56,0.00,CLR,,0.00,WeatherDisplay:10.37,2013-09-14 16:49:00,
2013-09-14 12:54:00,66.4,49.7,30.07,ESE,107,4.6,4.6,55,0.00,CLR,,0.00,WeatherDisplay:10.37,2013-09-14 16:54:00,
2013-09-14 12:59:00,66.3,49.6,30.07,ENE,78,4.6,4.6,55,0.00,CLR,,0.00,WeatherDisplay:10.37,2013-09-14 16:59:00,
2013-09-14 13:04:00,66.4,49.2,30.07,NNW,345,3.5,3.5,54,0.00,CLR,,0.00,WeatherDisplay:10.37,2013-09-14 17:04:00,
2013-09-14 13:09:00,67.2,50.0,30.07,ESE,123,2.3,2.3,54,0.00,CLR,,0.00,WeatherDisplay:10.37,2013-09-14 17:09:00,
2013-09-14 13:14:00,67.6,49.3,30.07,SE,132,3.0,3.0,52,0.00,CLR,,0.00,WeatherDisplay:10.37,2013-09-14 17:14:00,
2013-09-14 13:19:00,67.9,50.1,30.07,NNE,30,5.0,5.0,53,0.00,CLR,,0.00,WeatherDisplay:10.37,2013-09-14 17:19:00,
2013-09-14 13:24:00,67.5,49.3,30.07,NE,43,2.3,2.3,52,0.00,CLR,,0.00,WeatherDisplay:10.37,2013-09-14 17:24:00,
2013-09-14 13:29:00,67.5,49.8,30.07,ESE,120,3.5,3.5,53,0.00,CLR,,0.00,WeatherDisplay:10.37,2013-09-14 17:29:00,
2013-09-14 13:34:00,68.0,48.7,30.07,ENE,71,5.0,5.0,50,0.00,CLR,,0.00,WeatherDisplay:10.37,2013-09-14 17:34:00,
2013-09-14 13:39:00,67.7,46.2,30.07,ESE,120,3.5,3.5,46,0.00,CLR,,0.00,WeatherDisplay:10.37,2013-09-14 17:39:00,
2013-09-14 13:44:00,68.1,47.7,30.07,NE,55,4.6,4.6,48,0.00,CLR,,0.00,WeatherDisplay:10.37,2013-09-14 17:44:00,
2013-09-14 13:49:00,68.5,48.6,30.06,East,92,3.5,3.5,49,0.00,CLR,,0.00,WeatherDisplay:10.37,2013-09-14 17:49:00,
2013-09-14 13:54:00,68.7,46.5,30.06,South,179,4.6,4.6,45,0.00,CLR,,0.00,WeatherDisplay:10.37,2013-09-14 17:54:00,
2013-09-14 13:59:00,69.1,49.7,30.06,SW,231,6.9,6.9,50,0.00,CLR,,0.00,WeatherDisplay:10.37,2013-09-14 17:59:00,
2013-09-14 14:04:00,69.2,46.4,30.06,East,91,2.3,2.3,44,0.00,CLR,,0.00,WeatherDisplay:10.37,2013-09-14 18:04:00,
2013-09-14 14:09:00,69.5,47.2,30.06,SE,127,3.5,3.5,45,0.00,CLR,,0.00,WeatherDisplay:10.37,2013-09-14 18:09:00,
2013-09-14 14:14:00,69.9,52.0,30.07,East,94,8.1,8.1,53,0.00,CLR,,0.00,WeatherDisplay:10.37,2013-09-14 18:14:00,
2013-09-14 14:19:00,69.4,47.1,30.06,West,267,3.5,3.5,45,0.00,CLR,,0.00,WeatherDisplay:10.37,2013-09-14 18:19:00,
2013-09-14 14:24:00,70.0,47.1,30.06,WSW,255,3.5,3.5,44,0.00,CLR,,0.00,WeatherDisplay:10.37,2013-09-14 18:24:00,
2013-09-14 14:29:00,71.1,48.1,30.06,West,267,1.2,1.2,44,0.00,CLR,,0.00,WeatherDisplay:10.37,2013-09-14 18:29:00,
2013-09-14 14:34:00,71.1,44.9,30.06,NNW,338,2.3,2.3,39,0.00,CLR,,0.00,WeatherDisplay:10.37,2013-09-14 18:34:00,
2013-09-14 14:39:00,71.4,48.3,30.06,WSW,241,1.2,1.2,44,0.00,CLR,,0.00,WeatherDisplay:10.37,2013-09-14 18:39:00,
2013-09-14 14:44:00,71.4,47.7,30.06,WSW,242,3.5,3.5,43,0.00,CLR,,0.00,WeatherDisplay:10.37,2013-09-14 18:44:00,
2013-09-14 14:49:00,71.8,46.8,30.06,SE,129,4.0,4.0,41,0.00,CLR,,0.00,WeatherDisplay:10.37,2013-09-14 18:49:00,
2013-09-14 14:54:00,71.7,48.0,30.06,SE,143,3.5,3.5,43,0.00,CLR,,0.00,WeatherDisplay:10.37,2013-09-14 18:54:00,
2013-09-14 14:59:00,72.4,48.6,30.06,SE,136,3.0,3.0,43,0.00,CLR,,0.00,WeatherDisplay:10.37,2013-09-14 18:59:00,
2013-09-14 15:04:00,72.6,47.5,30.05,WSW,251,2.3,2.3,41,0.00,CLR,,0.00,WeatherDisplay:10.37,2013-09-14 19:04:00,
2013-09-14 15:09:00,72.4,47.4,30.05,SE,129,5.0,5.0,41,0.00,CLR,,0.00,WeatherDisplay:10.37,2013-09-14 19:09:00,
2013-09-14 15:14:00,71.5,47.8,30.06,SE,144,4.6,4.6,43,0.00,CLR,,0.00,WeatherDisplay:10.37,2013-09-14 19:14:00,
2013-09-14 15:19:00,71.2,48.8,30.05,ENE,72,3.5,3.5,45,0.00,CLR,,0.00,WeatherDisplay:10.37,2013-09-14 19:19:00,
2013-09-14 15:24:00,70.8,47.2,30.05,SE,145,3.5,3.5,43,0.00,CLR,,0.00,WeatherDisplay:10.37,2013-09-14 19:24:00,
2013-09-14 15:30:00,70.5,46.9,30.05,WSW,237,3.5,3.5,43,0.00,CLR,,0.00,WeatherDisplay:10.37,2013-09-14 19:30:00,
2013-09-14 15:35:00,70.9,49.7,30.05,WNW,298,4.6,4.6,47,0.00,CLR,,0.00,WeatherDisplay:10.37,2013-09-14 19:35:00,
2013-09-14 15:40:00,70.8,48.4,30.05,ENE,63,3.5,3.5,45,0.00,CLR,,0.00,WeatherDisplay:10.37,2013-09-14 19:40:00,
2013-09-14 15:45:00,70.8,49.0,30.05,East,88,3.5,3.5,46,0.00,CLR,,0.00,WeatherDisplay:10.37,2013-09-14 19:45:00,
2013-09-14 15:50:00,70.7,47.7,30.05,NE,36,3.5,3.5,44,0.00,CLR,,0.00,WeatherDisplay:10.37,2013-09-14 19:50:00,
2013-09-14 15:55:00,70.4,47.5,30.05,WNW,288,1.0,4.0,44,0.00,CLR,,0.00,WeatherDisplay:10.37,2013-09-14 19:55:00,
2013-09-14 16:00:00,71.8,49.3,30.04,SSE,153,4.6,4.6,45,0.00,CLR,,0.00,WeatherDisplay:10.37,2013-09-14 20:00:00,
2013-09-14 16:05:00,72.0,48.3,30.05,SSE,161,2.3,2.3,43,0.00,CLR,,0.00,WeatherDisplay:10.37,2013-09-14 20:05:00,
2013-09-14 16:10:00,71.7,46.7,30.05,SE,126,0.0,3.0,41,0.00,CLR,,0.00,WeatherDisplay:10.37,2013-09-14 20:10:00,
2013-09-14 16:15:00,72.1,48.4,30.05,SSE,150,1.0,2.0,43,0.00,CLR,,0.00,WeatherDisplay:10.37,2013-09-14 20:15:00,
2013-09-14 16:20:00,72.6,48.8,30.05,ESE,118,1.2,1.2,43,0.00,CLR,,0.00,WeatherDisplay:10.37,2013-09-14 20:20:00,
2013-09-14 16:25:00,73.5,48.4,30.05,WNW,298,0.0,0.0,41,0.00,CLR,,0.00,WeatherDisplay:10.37,2013-09-14 20:25:00,
2013-09-14 16:30:00,74.4,49.2,30.05,WSW,249,1.2,1.2,41,0.00,CLR,,0.00,WeatherDisplay:10.37,2013-09-14 20:30:00,
2013-09-14 16:35:00,74.3,48.4,30.05,WSW,248,3.5,3.5,40,0.00,CLR,,0.00,WeatherDisplay:10.37,2013-09-14 20:35:00,
2013-09-14 16:40:00,74.5,50.5,30.05,West,266,1.0,2.0,43,0.00,CLR,,0.00,WeatherDisplay:10.37,2013-09-14 20:40:00,
2013-09-14 16:45:00,74.3,46.3,30.05,NW,317,2.3,2.3,37,0.00,CLR,,0.00,WeatherDisplay:10.37,2013-09-14 20:45:00,
2013-09-14 16:50:00,73.3,46.2,30.05,SSE,158,3.5,3.5,38,0.00,CLR,,0.00,WeatherDisplay:10.37,2013-09-14 20:50:00,
2013-09-14 16:55:00,74.1,48.9,30.05,SE,141,0.0,2.0,41,0.00,CLR,,0.00,WeatherDisplay:10.37,2013-09-14 20:55:00,
2013-09-14 17:00:00,74.0,46.8,30.05,ENE,75,2.3,0.0,38,0.00,CLR,,0.00,WeatherDisplay:10.37,2013-09-14 21:00:00,
2013-09-14 17:05:00,73.7,46.5,30.05,NW,314,1.0,5.0,38,0.00,CLR,,0.00,WeatherDisplay:10.37,2013-09-14 21:05:00,
2013-09-14 17:10:00,74.0,48.1,30.05,WNW,299,1.0,3.0,40,0.00,CLR,,0.00,WeatherDisplay:10.37,2013-09-14 21:10:00,
2013-09-14 17:15:00,74.0,46.8,30.05,WNW,290,1.2,1.2,38,0.00,CLR,,0.00,WeatherDisplay:10.37,2013-09-14 21:15:00,
2013-09-14 17:20:00,73.6,45.7,30.05,WNW,285,0.0,1.0,37,0.00,CLR,,0.00,WeatherDisplay:10.37,2013-09-14 21:20:00,
2013-09-14 17:25:00,74.7,46.0,30.05,WNW,292,1.2,1.2,36,0.00,CLR,,0.00,WeatherDisplay:10.37,2013-09-14 21:25:00,
2013-09-14 17:30:00,73.6,44.2,30.05,NE,37,3.5,3.5,35,0.00,CLR,,0.00,WeatherDisplay:10.37,2013-09-14 21:30:00,
2013-09-14 17:35:00,72.4,44.0,30.05,NE,47,0.0,2.0,36,0.00,CLR,,0.00,WeatherDisplay:10.37,2013-09-14 21:35:00,
2013-09-14 17:40:00,72.6,46.2,30.05,NNW,343,1.2,0.0,39,0.00,CLR,,0.00,WeatherDisplay:10.37,2013-09-14 21:40:00,
2013-09-14 17:45:00,72.3,45.3,30.05,NNW,336,2.0,5.0,38,0.00,CLR,,0.00,WeatherDisplay:10.37,2013-09-14 21:45:00,
2013-09-14 17:50:00,71.8,44.9,30.06,NNW,346,2.0,4.0,38,0.00,CLR,,0.00,WeatherDisplay:10.37,2013-09-14 21:50:00,
2013-09-14 17:55:00,72.1,49.6,30.06,WNW,290,1.2,1.2,45,0.00,CLR,,0.00,WeatherDisplay:10.37,2013-09-14 21:55:00,
2013-09-14 18:00:00,72.7,48.9,30.06,NW,319,1.0,4.0,43,0.00,CLR,,0.00,WeatherDisplay:10.37,2013-09-14 22:00:00,
2013-09-14 18:05:00,72.1,48.4,30.06,NNW,333,0.0,0.0,43,0.00,CLR,,0.00,WeatherDisplay:10.37,2013-09-14 22:05:00,
2013-09-14 18:10:00,71.7,48.6,30.06,NNE,23,3.5,3.5,44,0.00,CLR,,0.00,WeatherDisplay:10.37,2013-09-14 22:10:00,
2013-09-14 18:15:00,71.3,46.4,30.06,East,85,1.2,1.2,41,0.00,CLR,,0.00,WeatherDisplay:10.37,2013-09-14 22:15:00,
2013-09-14 18:20:00,71.6,46.6,30.06,North,8,2.0,4.0,41,0.00,CLR,,0.00,WeatherDisplay:10.37,2013-09-14 22:20:00,
2013-09-14 18:25:00,71.5,45.9,30.06,NNW,333,0.0,0.1,40,0.00,CLR,,0.00,WeatherDisplay:10.37,2013-09-14 22:25:00,
2013-09-14 18:30:00,72.0,48.3,30.06,NNW,328,0.0,1.0,43,0.00,CLR,,0.00,WeatherDisplay:10.37,2013-09-14 22:30:00,
2013-09-14 18:35:00,72.0,50.1,30.06,SSE,165,2.3,2.3,46,0.00,CLR,,0.00,WeatherDisplay:10.37,2013-09-14 22:35:00,
2013-09-14 18:40:00,72.2,50.8,30.06,SSE,164,1.2,1.2,47,0.00,CLR,,0.00,WeatherDisplay:10.37,2013-09-14 22:40:00,
2013-09-14 18:45:00,72.2,50.8,30.06,SSE,165,0.0,1.0,47,0.00,CLR,,0.00,WeatherDisplay:10.37,2013-09-14 22:45:00,
2013-09-14 18:49:00,71.5,50.2,30.06,SSE,165,1.2,1.2,47,0.00,CLR,,0.00,WeatherDisplay:10.37,2013-09-14 22:49:00,
2013-09-14 18:54:00,70.8,49.6,30.06,SSE,165,1.2,1.2,47,0.00,CLR,,0.00,WeatherDisplay:10.37,2013-09-14 22:54:00,
2013-09-14 18:59:00,70.4,50.3,30.06,SSE,165,0.0,0.1,49,0.00,CLR,,0.00,WeatherDisplay:10.37,2013-09-14 22:59:00,
2013-09-14 19:04:00,69.2,49.8,30.06,SSE,165,0.0,0.1,50,0.00,CLR,,0.00,WeatherDisplay:10.37,2013-09-14 23:04:00,
2013-09-14 19:09:00,67.7,50.5,30.06,SSE,165,0.0,0.1,54,0.00,CLR,,0.00,WeatherDisplay:10.37,2013-09-14 23:09:00,
2013-09-14 19:14:00,66.3,49.6,30.06,SSE,165,1.2,0.0,55,0.00,CLR,,0.00,WeatherDisplay:10.37,2013-09-14 23:14:00,
2013-09-14 19:19:00,64.9,49.8,30.07,SSE,165,1.2,0.0,58,0.00,CLR,,0.00,WeatherDisplay:10.37,2013-09-14 23:19:00,
2013-09-14 19:24:00,63.6,51.2,30.07,SSE,165,0.0,0.0,64,0.00,CLR,,0.00,WeatherDisplay:10.37,2013-09-14 23:24:00,
2013-09-14 19:30:00,62.6,51.5,30.07,SSE,165,0.0,0.0,67,0.00,CLR,,0.00,WeatherDisplay:10.37,2013-09-14 23:30:00,
2013-09-14 19:34:00,61.4,51.1,30.07,SSE,165,0.0,0.0,69,0.00,CLR,,0.00,WeatherDisplay:10.37,2013-09-14 23:34:00,
2013-09-14 19:40:00,60.3,51.2,30.07,SSE,165,1.2,1.2,72,0.00,CLR,,0.00,WeatherDisplay:10.37,2013-09-14 23:40:00,
2013-09-14 19:45:00,59.4,51.1,30.07,SSE,164,0.0,0.0,74,0.00,CLR,,0.00,WeatherDisplay:10.37,2013-09-14 23:45:00,
2013-09-14 19:50:00,58.7,50.8,30.07,SSE,164,0.0,0.0,75,0.00,CLR,,0.00,WeatherDisplay:10.37,2013-09-14 23:50:00,
2013-09-14 19:55:00,57.9,50.0,30.07,SSE,163,0.0,0.0,75,0.00,CLR,,0.00,WeatherDisplay:10.37,2013-09-14 23:55:00,
2013-09-14 20:00:00,57.2,50.4,30.08,SSE,163,0.0,0.0,78,0.00,CLR,,0.00,WeatherDisplay:10.37,2013-09-15 00:00:00,
2013-09-14 20:05:00,56.6,50.2,30.08,SSE,164,0.0,0.0,79,0.00,,,0.00,WeatherDisplay:10.37,2013-09-15 00:05:00,
2013-09-14 20:10:00,55.9,49.9,30.08,SSE,164,0.0,0.0,80,0.00,,,0.00,WeatherDisplay:10.37,2013-09-15 00:10:00,
2013-09-14 20:15:00,55.4,49.7,30.08,SSE,164,0.0,0.0,81,0.00,,,0.00,WeatherDisplay:10.37,2013-09-15 00:15:00,
2013-09-14 20:20:00,55.1,49.4,30.08,SSE,163,0.0,0.0,81,0.00,,,0.00,WeatherDisplay:10.37,2013-09-15 00:20:00,
2013-09-14 20:25:00,54.7,49.7,30.09,SSE,164,0.0,1.0,83,0.00,,,0.00,WeatherDisplay:10.37,2013-09-15 00:25:00,
2013-09-14 20:30:00,54.5,49.4,30.09,SSE,165,1.2,1.2,83,0.00,,,0.00,WeatherDisplay:10.37,2013-09-15 00:30:00,
2013-09-14 20:35:00,54.3,49.6,30.09,SSE,165,0.0,0.0,84,0.00,,,0.00,WeatherDisplay:10.37,2013-09-15 00:35:00,
2013-09-14 20:40:00,54.1,49.4,30.09,SSE,165,0.0,0.0,84,0.00,,,0.00,WeatherDisplay:10.37,2013-09-15 00:40:00,
2013-09-14 20:45:00,53.9,49.5,30.09,SSE,165,1.2,0.0,85,0.00,,,0.00,WeatherDisplay:10.37,2013-09-15 00:45:00,
2013-09-14 20:50:00,53.8,49.7,30.09,SSE,165,0.0,1.0,86,0.00,,,0.00,WeatherDisplay:10.37,2013-09-15 00:50:00,
2013-09-14 20:55:00,53.6,49.5,30.09,SSE,165,0.0,0.0,86,0.00,,,0.00,WeatherDisplay:10.37,2013-09-15 00:55:00,
2013-09-14 21:00:00,53.5,49.7,30.09,SSE,165,0.0,1.0,87,0.00,,,0.00,WeatherDisplay:10.37,2013-09-15 01:00:00,
2013-09-14 21:05:00,53.3,49.8,30.09,SSE,165,0.0,1.0,88,0.00,,,0.00,WeatherDisplay:10.37,2013-09-15 01:05:00,
2013-09-14 21:10:00,53.2,49.4,30.09,SSE,165,0.0,0.0,87,0.00,,,0.00,WeatherDisplay:10.37,2013-09-15 01:10:00,
2013-09-14 21:15:00,53.0,49.6,30.09,SSE,165,0.0,1.0,88,0.00,,,0.00,WeatherDisplay:10.37,2013-09-15 01:15:00,
2013-09-14 21:20:00,53.1,49.9,30.09,SSE,165,0.0,1.0,89,0.00,,,0.00,WeatherDisplay:10.37,2013-09-15 01:20:00,
2013-09-14 21:25:00,53.0,49.5,30.09,SSE,164,0.0,0.0,88,0.00,,,0.00,WeatherDisplay:10.37,2013-09-15 01:25:00,
2013-09-14 21:30:00,52.7,49.5,30.10,SSE,163,0.0,0.0,89,0.00,,,0.00,WeatherDisplay:10.37,2013-09-15 01:30:00,
2013-09-14 21:35:00,52.3,48.9,30.10,SSE,164,0.0,0.0,88,0.00,,,0.00,WeatherDisplay:10.37,2013-09-15 01:35:00,
2013-09-14 21:40:00,51.9,48.8,30.10,SSE,163,0.0,0.0,89,0.00,,,0.00,WeatherDisplay:10.37,2013-09-15 01:40:00,
2013-09-14 21:45:00,51.5,48.7,30.11,SSE,164,0.0,0.0,90,0.00,,,0.00,WeatherDisplay:10.37,2013-09-15 01:45:00,
2013-09-14 21:50:00,51.2,48.4,30.11,SSE,164,0.0,0.0,90,0.00,,,0.00,WeatherDisplay:10.37,2013-09-15 01:50:00,
2013-09-14 21:55:00,51.1,48.9,30.11,SSE,163,0.0,0.0,92,0.00,,,0.00,WeatherDisplay:10.37,2013-09-15 01:55:00,
2013-09-14 22:00:00,51.2,49.0,30.11,SSE,164,0.0,0.0,92,0.00,,,0.00,WeatherDisplay:10.37,2013-09-15 02:00:00,
2013-09-14 22:05:00,51.0,48.8,30.11,SSE,163,0.0,0.0,92,0.00,CLR,,0.00,WeatherDisplay:10.37,2013-09-15 02:05:00,
2013-09-14 22:10:00,51.0,49.0,30.11,SSE,164,0.0,0.0,93,0.00,CLR,,0.00,WeatherDisplay:10.37,2013-09-15 02:10:00,
2013-09-14 22:15:00,51.0,49.0,30.11,SSE,164,0.0,0.0,93,0.00,CLR,,0.00,WeatherDisplay:10.37,2013-09-15 02:15:00,
2013-09-14 22:20:00,50.9,48.9,30.11,SSE,164,0.0,0.0,93,0.00,CLR,,0.00,WeatherDisplay:10.37,2013-09-15 02:20:00,
2013-09-14 22:25:00,50.9,49.2,30.11,SSE,164,0.0,0.0,94,0.00,CLR,,0.00,WeatherDisplay:10.37,2013-09-15 02:25:00,
2013-09-14 22:30:00,50.9,49.2,30.11,SSE,164,0.0,0.0,94,0.00,CLR,,0.00,WeatherDisplay:10.37,2013-09-15 02:30:00,
2013-09-14 22:35:00,50.8,49.1,30.11,SSE,164,1.2,1.2,94,0.00,CLR,,0.00,WeatherDisplay:10.37,2013-09-15 02:35:00,
2013-09-14 22:40:00,50.9,49.3,30.11,SSE,164,0.0,1.0,94,0.00,CLR,,0.00,WeatherDisplay:10.37,2013-09-15 02:40:00,
2013-09-14 22:45:00,51.0,49.3,30.11,SSE,163,0.0,0.0,94,0.00,CLR,,0.00,WeatherDisplay:10.37,2013-09-15 02:45:00,
2013-09-14 22:50:00,51.0,49.3,30.11,SSE,164,0.0,0.0,94,0.00,CLR,,0.00,WeatherDisplay:10.37,2013-09-15 02:50:00,
2013-09-14 22:55:00,50.9,49.3,30.11,SSE,164,0.0,0.0,94,0.00,CLR,,0.00,WeatherDisplay:10.37,2013-09-15 02:55:00,
2013-09-14 23:00:00,50.9,49.5,30.11,SSE,164,1.2,1.2,95,0.00,CLR,,0.00,WeatherDisplay:10.37,2013-09-15 03:00:00,
2013-09-14 23:05:00,51.0,49.3,30.11,SSE,164,0.0,0.0,94,0.00,,,0.00,WeatherDisplay:10.37,2013-09-15 03:05:00,
2013-09-14 23:10:00,51.0,49.3,30.11,SSE,164,0.0,1.0,94,0.00,,,0.00,WeatherDisplay:10.37,2013-09-15 03:10:00,
2013-09-14 23:15:00,51.0,49.3,30.11,SSE,164,1.2,0.0,94,0.00,,,0.00,WeatherDisplay:10.37,2013-09-15 03:15:00,
2013-09-14 23:20:00,51.1,49.7,30.12,SSE,164,1.2,0.0,95,0.00,,,0.00,WeatherDisplay:10.37,2013-09-15 03:20:00,
2013-09-14 23:25:00,51.1,49.8,30.11,SSE,163,0.0,1.0,95,0.00,,,0.00,WeatherDisplay:10.37,2013-09-15 03:25:00,
2013-09-14 23:30:00,51.3,49.9,30.11,SSE,164,1.2,0.0,95,0.00,,,0.00,WeatherDisplay:10.37,2013-09-15 03:30:00,
2013-09-14 23:35:00,51.3,49.6,30.11,SSE,164,0.0,1.0,94,0.00,,,0.00,WeatherDisplay:10.37,2013-09-15 03:35:00,
2013-09-14 23:40:00,51.2,49.5,30.12,SSE,164,0.0,0.0,94,0.00,,,0.00,WeatherDisplay:10.37,2013-09-15 03:40:00,
2013-09-14 23:45:00,51.0,49.3,30.12,SSE,163,0.0,0.0,94,0.00,,,0.00,WeatherDisplay:10.37,2013-09-15 03:45:00,
2013-09-14 23:50:00,50.9,49.2,30.12,SSE,164,0.0,1.0,94,0.00,,,0.00,WeatherDisplay:10.37,2013-09-15 03:50:00,
2013-09-14 23:55:00,50.8,49.1,30.12,SSE,164,0.0,0.0,94,0.00,,,0.00,WeatherDisplay:10.37,2013-09-15 03:55:00,